This is the latest recevied weather packets stored in our database for station/object F8BMG-Wx. If no packets are shown the sender has not sent any weather packets the latest 10 day(s).
| Time | Temp. | Humidity | Pressure | Rain* | Wind** | Luminosity | Snow |
|---|---|---|---|---|---|---|---|
| 1778085851 | 16.11° C | 99% | 1012.3 hPa | 0 mm | - | - | - |
| 1778085547 | 15.56° C | 99% | 1012.3 hPa | 0 mm | - | - | - |
| 1778085243 | 16.11° C | 99% | 1012.2 hPa | 0 mm | - | - | - |
| 1778084939 | 16.11° C | 99% | 1012.2 hPa | 0 mm | - | - | - |
| 1778084636 | 16.11° C | 99% | 1012.2 hPa | 0 mm | - | - | - |
| 1778084337 | 16.67° C | 99% | 1012.2 hPa | 0 mm | - | - | - |
| 1778084025 | 16.67° C | 99% | 1012.2 hPa | 0 mm | - | - | - |
| 1778083722 | 16.67° C | 99% | 1012.2 hPa | 0 mm | - | - | - |
| 1778083418 | 16.67° C | 99% | 1012.3 hPa | 0 mm | - | - | - |
| 1778083114 | 16.11° C | 99% | 1012.2 hPa | 0 mm | - | - | - |
| 1778082811 | 16.11° C | 99% | 1012.2 hPa | 0 mm | - | - | - |
| 1778082514 | 16.67° C | 99% | 1012.1 hPa | 0 mm | - | - | - |
| 1778082202 | 16.11° C | 99% | 1012.1 hPa | 0 mm | - | - | - |
| 1778081898 | 15.56° C | 99% | 1012.1 hPa | 0 mm | - | - | - |
| 1778081594 | 15° C | 99% | 1012.3 hPa | 0 mm | - | - | - |
| 1778081290 | 14.44° C | 99% | 1012.4 hPa | 0 mm | - | - | - |
| 1778080987 | 15° C | 99% | 1012.4 hPa | 0 mm | - | - | - |
| 1778080689 | 15.56° C | 99% | 1012.4 hPa | 0 mm | - | - | - |
| 1778080377 | 15.56° C | 99% | 1012.3 hPa | 0 mm | - | - | - |
| 1778080074 | 15.56° C | 99% | 1012.3 hPa | 0 mm | - | - | - |
| 1778079770 | 15.56° C | 99% | 1012.2 hPa | 0 mm | - | - | - |
| 1778079467 | 15.56° C | 99% | 1012.3 hPa | 0 mm | - | - | - |
| 1778079163 | 15.56° C | 99% | 1012.3 hPa | 0 mm | - | - | - |
| 1778078866 | 16.11° C | 99% | 1012.2 hPa | 0 mm | - | - | - |
| 1778078554 | 16.11° C | 99% | 1012.2 hPa | 0 mm | - | - | - |
* Rain latest hour (hover to see other rain measurements)
** Current wind speed in m/s (hover to see current wind gust speed)